User: anonymous   Login
Location: West Cummington
(42.4920°N, 72.9680°W)
Time: 03:06:40
(UTC-04:00)
Language:

Cosmos 841 Rocket - Orbit

View from above orbital plane
View from above orbital plane
View from above satellite
View from above satellite

Ground track
Ground track

The orbit data is extracted from the following two-line orbital elements,

1 09023U 76069B   15116.49964669  .00000441  00000-0  15008-3 0  9995
2 09023 074.0421 101.0754 0016384 101.1610 259.1388 14.39361897 32208
Epoch (UTC): 26 April 2015 11:59:29
Eccentricity: 0.0016384
inclination: 74.0421°
perigee height: 749 km
apogee height: 772 km
right ascension of ascending node: 101.0754°
argument of perigee: 101.1610°
revolutions per day: 14.39361897
mean anomaly at epoch: 259.1388°
orbit number at epoch: 3220

The dashed part of the orbit path shows where the satellite is in the earth's shadow,  

DLR